Regional Weather Roundup
Issued by NWS

Home | Current Version | Previous Version | Text Only | Print | Product List | Glossary Off
Versions: 1 2 3 4 5 6 7 8 9 10 11 12 13 14 15 16 17 18 19 20 21 22 23 24 25 26 27 28 29 30 31 32 33 34 35 36 37 38 39 40 41 42 43 44 45 46 47 48 49 50

000
ASUS43 KLMK 170002
RWRKY
KENTUCKY REGIONAL WEATHER ROUNDUP
NATIONAL WEATHER SERVICE LOUISVILLE KY
700 PM EST TUE JAN 16 2018

NOTE "FAIR" INDICATES FEW OR NO CLOUDS BELOW 12,000 FEET
WITH NO SIGNIFICANT WEATHER AND/OR OBSTRUCTIONS TO VISIBILITY.

KYZ001>023-026-027-061>063-070>075-170100-
WESTERN AND SOUTH CENTRAL KENTUCKY

CITY           SKY/WX    TMP DP  RH WIND       PRES   REMARKS
PADUCAH        CLOUDY    12   0  58 N7        30.66R WCI   1
HENDERSON      FLURRIES   7   1  76 NW6       30.67R WCI  -3
OWENSBORO      FLURRIES   7   0  73 NW9       30.66R WCI  -7
HOPKINSVILLE   FAIR       6  -4  62 NW7       30.61S WCI  -6
BOWLING GREEN  FAIR       9  -2  61 N7        30.62R WCI  -2
GLASGOW        NOT AVBL
$$

KYZ024-025-028>034-038-045-046-053-170100-
NORTH CENTRAL KENTUCKY

CITY           SKY/WX    TMP DP  RH WIND       PRES   REMARKS
LOUISVILLE/SDF CLOUDY    11  -1  58 W12       30.59R WCI  -3
LOUISVILLE/LOU CLOUDY    11   0  61 W9        30.60R WCI  -2
FORT KNOX      CLOUDY     7  -2  64 W12       30.56R WCI  -8
$$

KYZ035>037-039>044-047>052-055>060-089>105-170100-
NORTHEAST KENTUCKY

CITY           SKY/WX    TMP DP  RH WIND       PRES   REMARKS
LEXINGTON      FAIR       5  -2  72 NW5       30.53R WCI  -4
COVINGTON      CLOUDY     9   2  73 W10       30.51S WCI  -5
FRANKFORT      FAIR       2  -5  72 W3        30.54R
$$

KYZ054-064>069-076>088-106>120-170100-
SOUTHEAST KENTUCKY

CITY           SKY/WX    TMP DP  RH WIND       PRES   REMARKS
JACKSON        CLOUDY    11   7  84 VRB5      30.46R WCI   3
LONDON         CLOUDY    10   6  84 W6        30.49R WCI   0
SOMERSET       NOT AVBL
MIDDLESBORO    LGT SNOW  17  13  82 NW3       30.47R
MONTICELLO     FAIR       3   0  87 N12       30.56R WCI -13
$$





USA.gov is the U.S. government's official web portal to all federal, state and local government web resources and services.